Theta_e
323 325 324 323 323 322 321 321 322 321 321 322 322 322 321 321 321 321 321 321 321 321 321 319 318 317 316 316 317 316 317 318 319 320 323 322 322 326 326 327 327 328 328 327
322 323 321 321 321 322 322 324 323 322 321 322 323 323 322 321 321 321 321 320 320 319 318 318 317 315 315 315 316 316 317 317 319 320 321 322 323 323 325 325 326 328 329 328
320 318 319 320 322 323 323 323 322 322 322 322 323 321 319 319 320 319 319 318 318 317 317 315 314 314 315 315 315 316 317 317 320 320 321 321 322 321 322 323 324 326 328 329
318 316 318 320 321 323 324 322 322 323 323 324 319 322 318 318 317 316 315 316 316 316 313 313 314 315 315 315 316 316 317 317 318 319 320 321 323 325 327 327 327 327 328 329
315 318 317 319 318 319 319 320 322 321 322 321 321 322 317 316 317 316 316 316 316 312 311 312 313 313 314 316 317 317 317 317 318 319 320 324 325 327 327 327 328 328 328 329
316 314 317 317 317 317 318 318 319 320 320 322 318 319 317 317 317 316 315 313 311 310 310 310 310 310 312 313 315 317 319 319 319 320 322 325 326 325 325 326 326 325 325 325
316 317 316 315 319 318 319 320 322 324 323 321 317 320 318 316 316 316 316 312 308 308 307 307 308 309 309 310 311 311 313 316 320 323 323 323 323 323 324 324 324 323 323 324
316 316 316 317 316 317 320 319 319 317 318 318 316 321 318 316 313 312 311 309 306 305 305 305 305 305 306 307 307 308 309 309 309 309 310 310 310 311 310 310 310 310 310 310
315 315 313 315 316 316 319 320 318 318 313 318 318 317 315 314 311 309 307 306 305 303 301 302 302 302 302 304 305 305 306 306 306 307 307 308 308 308 308 307 307 307 307 308
311 314 313 314 315 316 317 317 319 317 322 321 316 315 315 315 313 309 307 305 302 301 300 299 299 299 299 300 300 300 301 301 301 301 301 301 301 301 301 300 300 300 300 300
310 311 313 314 316 316 317 317 316 316 317 315 314 313 313 315 314 311 308 305 302 300 299 299 298 298 298 299 299 299 299 299 300 300 300 299 299 299 299 299 299 299 299 299
311 311 314 315 313 314 315 315 316 317 316 317 317 316 312 314 312 309 306 303 301 299 298 299 298 298 298 298 298 299 299 299 299 299 299 298 297 297 297 297 297 297 297 297
312 312 314 312 312 314 315 315 316 316 315 317 318 316 313 311 309 307 305 302 299 298 297 297 298 298 298 298 299 299 298 298 298 297 296 296 295 295 295 296 295 296 296 296
311 312 312 313 311 312 314 314 315 316 316 316 316 315 314 313 310 307 305 302 300 298 297 296 297 297 297 296 296 297 297 297 297 297 296 295 295 295 294 294 294 295 295 295
311 314 312 312 310 310 311 313 314 316 315 316 315 314 314 314 313 309 306 302 300 298 295 297 297 298 299 299 298 298 297 296 295 294 294 294 294 293 294 293 293 294 293 294
311 313 312 312 311 310 311 311 313 314 315 314 314 313 312 311 312 310 305 302 301 298 297 299 300 298 296 295 295 294 295 294 293 293 293 293 293 293 293 292 292 292 292 292
311 311 311 313 311 311 312 311 312 312 313 313 314 314 313 312 311 309 306 303 303 301 299 299 298 298 296 295 294 293 292 292 293 292 291 291 291 291 291 290 290 290 290 290
311 310 311 313 310 312 311 310 310 311 311 312 313 312 312 312 311 310 308 306 304 301 298 297 297 296 296 297 299 293 292 290 290 291 291 290 289 290 289 289 289 289 289 289
307 311 311 312 313 311 310 307 308 310 311 310 311 312 311 306 306 306 308 307 303 300 299 298 297 297 302 300 298 290 289 289 289 289 289 287 287 288 287 287 288 288 288 287
307 309 311 312 313 313 310 307 306 308 311 310 309 310 311 302 310 312 304 302 301 302 299 297 296 297 290 288 288 288 288 287 287 288 286 285 286 286 286 286 285 284 284 284
309 310 311 313 312 310 308 303 307 311 310 308 308 309 308 306 309 306 303 299 300 299 297 294 293 291 287 285 286 286 286 286 286 284 283 284 285 285 284 283 283 283 282 282
306 308 311 311 312 312 302 306 309 308 307 303 306 307 304 304 300 300 295 296 296 294 292 291 288 285 284 285 285 285 284 284 284 283 284 284 283 283 282 282 281 281 281 282
306 308 309 310 311 301 303 304 304 301 300 300 302 305 302 298 296 294 291 290 290 290 290 286 284 284 285 284 283 284 284 284 283 283 283 282 281 280 280 280 279 280 280 280
302 301 305 305 305 303 296 300 300 301 300 300 300 301 300 297 293 288 285 286 286 286 285 284 283 284 283 283 283 283 283 283 282 282 281 280 279 278 278 277 278 278 278 278
303 301 304 303 300 294 298 296 297 296 295 295 295 295 295 295 290 291 287 285 285 284 283 283 283 282 282 282 282 282 282 282 281 279 279 278 277 277 277 277 276 276 276 275
299 304 305 307 298 301 298 297 298 294 293 294 294 293 293 291 292 288 287 284 284 283 282 282 281 281 281 281 281 281 280 279 278 278 277 276 276 276 276 276 276 275 275 274
Wind_Speed
11 10 17 20 21 16 11 14 17 12 5 5 17 19 19 21 18 19 22 25 26 31 33 29 28 26 29 30 30 28 29 29 32 35 30 28 33 32 31 31 28 26 26 27
6 16 14 13 16 19 17 16 15 8 4 5 16 24 18 20 23 24 25 25 30 31 26 22 20 26 29 31 30 27 26 28 28 30 30 26 25 29 28 28 27 27 26 26
19 5 18 9 11 19 20 21 16 15 4 8 12 25 19 14 18 20 20 25 26 26 22 20 25 25 25 25 27 26 24 23 23 23 24 24 21 23 25 26 26 25 23 22
14 21 8 19 17 14 17 12 11 11 4 9 1 11 14 15 16 15 21 21 21 17 13 17 17 19 17 17 17 20 19 18 20 20 19 19 17 16 13 13 15 17 19 18
9 14 20 18 21 17 12 7 9 6 7 6 17 9 2 9 7 15 20 14 10 9 7 7 6 8 9 8 8 7 7 10 12 13 14 12 12 11 12 14 14 13 14 14
9 0 16 15 7 16 8 7 6 7 9 13 19 15 13 13 10 4 4 4 4 3 2 1 2 3 4 6 7 7 5 2 2 5 8 9 9 10 12 13 14 13 13 14
10 11 5 6 13 8 13 11 4 6 7 10 2 12 18 4 6 11 12 3 5 7 8 8 8 8 9 9 10 12 12 13 11 8 8 8 7 7 8 9 11 13 14 15
14 9 18 13 15 10 19 15 6 9 10 9 3 11 8 4 2 4 0 8 8 7 9 10 9 10 11 11 12 13 14 16 15 14 14 12 11 9 7 5 4 1 1 3
12 12 2 7 8 16 11 16 16 7 2 2 7 10 8 10 5 6 11 12 11 10 10 11 12 12 13 13 13 13 14 15 15 15 14 13 11 10 9 7 6 6 5 5
6 4 5 12 6 11 9 11 4 5 8 7 12 15 13 7 7 9 13 16 15 14 14 13 14 14 14 14 14 15 14 15 15 14 13 12 11 9 8 6 5 5 6 6
9 4 5 7 17 20 11 10 7 5 7 7 9 11 7 13 10 13 17 16 16 15 16 17 16 15 14 13 12 12 11 11 10 10 9 8 6 5 4 3 3 5 6 7
16 7 9 13 1 15 20 20 21 9 9 6 11 17 7 7 7 12 15 17 17 16 18 18 16 14 12 11 10 8 8 7 7 6 4 4 4 4 4 5 7 8 9 10
15 8 5 5 6 6 12 19 18 17 0 15 9 9 5 6 8 12 15 19 20 19 19 18 16 14 11 9 8 6 5 4 3 4 4 4 5 5 6 7 8 8 9 10
23 12 17 16 12 10 15 17 20 18 9 18 16 24 19 12 13 15 18 22 22 22 21 19 17 15 12 8 6 4 2 2 0 2 5 6 5 6 7 9 10 12 12 13
12 8 18 20 17 10 19 22 21 23 25 16 22 21 27 20 16 25 26 25 25 22 21 21 18 15 13 10 7 5 3 3 4 6 6 6 5 7 10 12 13 14 17 18
12 9 12 18 18 15 12 14 21 25 25 23 26 24 23 23 18 21 28 31 31 27 24 22 20 16 12 9 6 5 7 7 5 5 5 5 6 9 11 12 15 17 19 20
12 10 7 15 18 14 14 22 23 19 26 25 25 31 20 17 17 25 30 37 36 31 29 27 23 20 15 11 8 7 7 7 8 5 5 5 7 9 10 13 16 18 20 22
7 10 5 8 5 17 15 22 23 26 25 24 21 24 19 21 26 30 33 36 32 33 32 29 26 20 15 14 12 13 11 7 6 4 4 4 6 7 10 13 14 16 18 20
11 10 7 8 11 6 7 10 16 17 28 26 25 28 30 13 11 20 27 33 37 36 33 29 24 19 19 17 16 15 10 8 6 4 2 3 5 7 10 12 14 16 17 18
18 18 14 5 9 11 18 9 15 10 15 17 28 28 24 19 11 18 29 35 36 35 30 27 23 20 19 16 15 11 10 8 6 3 1 3 6 9 12 13 14 16 18 19
9 12 18 16 9 5 10 6 20 12 14 16 32 39 23 16 26 11 33 35 34 34 32 28 23 19 18 16 12 12 11 8 5 3 1 3 6 7 9 11 14 16 18 18
12 7 8 17 12 17 10 14 19 17 10 6 18 22 36 31 17 19 28 34 35 34 28 24 21 21 17 14 12 12 9 7 5 3 0 3 6 9 11 13 14 14 15 17
6 6 5 6 7 0 17 13 20 11 6 12 17 22 27 28 22 25 31 34 32 30 27 24 22 19 15 14 12 11 9 7 4 2 2 5 7 9 10 10 11 13 16 18
4 4 9 10 18 17 15 23 20 20 15 14 15 19 27 29 28 29 30 31 31 29 27 24 20 18 16 14 13 11 8 6 3 2 4 5 6 7 8 10 11 14 15 17
2 9 8 9 8 5 19 24 26 22 21 17 17 21 25 28 30 32 33 31 30 28 25 22 20 18 16 14 12 10 7 5 4 4 5 6 6 7 8 10 12 13 15 16
7 7 6 8 4 9 5 12 28 28 22 19 20 22 22 26 28 32 32 30 28 26 23 21 20 18 15 13 10 8 6 5 5 5 5 6 7 8 9 9 10 12 12 14
Wind_Direction
192 197 207 205 212 226 248 238 241 244 231 254 257 265 269 276 271 273 277 278 278 274 280 288 292 300 299 293 288 284 281 274 270 262 261 260 258 259 261 265 268 268 268 266
188 221 209 218 223 223 228 237 238 259 222 246 275 272 269 271 266 263 268 273 269 277 285 294 304 300 295 292 291 283 275 268 265 254 256 260 262 261 266 272 272 271 270 269
209 204 204 200 209 219 227 237 242 248 263 259 291 285 269 251 253 258 254 254 268 278 296 304 305 310 306 299 290 285 274 270 260 259 257 258 256 259 259 263 266 270 275 278
227 217 198 210 221 207 225 221 246 243 252 257 348 285 294 295 263 247 260 257 268 291 289 299 308 313 318 313 302 291 277 265 256 252 246 250 252 256 261 268 273 277 276 276
200 198 204 209 220 209 233 165 202 194 229 300 248 274 291 133 255 274 260 264 275 273 287 308 315 332 351 347 340 321 283 257 248 239 234 236 241 249 257 261 270 276 279 284
229 353 207 203 180 198 192 178 204 221 247 254 252 237 267 250 238 242 267 175 179 210 222 174 106 92 76 69 70 70 71 107 199 225 228 225 230 239 250 257 266 270 274 277
195 212 161 174 189 176 179 161 201 201 206 243 297 214 252 157 235 303 300 215 166 163 152 147 139 122 111 104 100 99 100 104 108 127 148 159 179 207 235 246 251 258 259 260
206 210 204 186 205 192 196 193 196 218 222 231 143 232 243 181 338 340 295 147 152 141 147 142 133 122 116 109 103 100 97 99 102 103 103 107 114 115 115 106 102 85 349 315
200 224 233 197 187 190 186 217 230 274 106 265 227 241 251 218 218 152 148 152 150 145 138 134 130 126 116 112 106 99 97 96 96 95 95 95 92 91 85 77 67 55 37 15
189 209 195 188 199 219 201 162 164 200 211 222 238 256 251 182 187 169 172 172 168 159 148 142 135 126 118 113 108 107 104 101 97 95 93 92 91 88 83 73 58 42 25 6
168 214 167 154 206 200 202 210 219 254 225 241 258 252 259 237 195 191 190 185 174 164 156 151 145 136 126 119 114 109 106 103 104 100 95 95 92 80 58 34 21 4 351 334
202 216 215 208 276 235 219 215 206 213 203 239 263 265 157 181 207 202 191 180 173 167 164 160 156 148 139 132 122 112 108 106 100 91 75 55 31 13 3 359 356 348 345 343
177 213 197 214 240 215 224 220 219 218 6 218 217 248 160 193 194 195 188 184 178 171 168 168 165 164 162 152 143 134 113 76 48 21 14 8 3 11 5 359 356 351 348 339
173 217 219 227 235 192 214 212 214 216 227 238 231 253 247 216 209 200 202 193 186 181 179 174 175 177 176 171 163 149 137 120 174 337 342 340 345 351 2 1 354 351 350 347
187 225 222 238 247 219 219 215 213 213 226 225 243 238 252 246 214 210 205 193 190 189 187 187 186 188 193 197 209 226 271 304 326 328 328 331 335 357 358 6 4 3 3 1
198 231 223 239 234 228 229 224 222 223 228 234 243 251 245 259 222 212 198 194 193 192 192 193 199 202 205 215 222 244 264 276 293 300 303 330 352 356 3 7 9 8 5 5
200 217 192 235 222 222 233 223 219 219 223 227 231 237 247 239 209 206 203 197 193 191 193 197 199 201 206 217 234 252 255 261 272 291 324 336 0 18 13 16 15 12 11 8
230 209 217 244 166 222 230 235 227 224 229 229 239 246 242 237 223 219 218 197 190 194 196 199 200 201 205 216 230 253 256 267 261 262 292 343 18 21 24 22 20 16 14 10
230 237 229 228 216 279 292 224 207 207 242 231 226 240 241 234 192 232 208 198 198 197 199 202 203 205 219 225 228 235 234 233 235 241 284 13 23 28 26 22 14 11 10 10
221 226 219 188 231 221 231 195 186 170 254 232 218 235 232 160 209 237 197 193 197 202 203 201 201 205 214 215 213 212 218 217 215 221 181 44 33 26 17 12 8 7 4 0
205 215 231 219 234 245 256 153 152 183 257 185 202 221 196 199 224 241 191 191 199 197 199 198 201 203 212 211 203 204 206 206 195 170 105 32 23 15 9 1 354 353 354 349
218 225 242 219 224 237 149 155 192 226 241 213 214 209 195 204 206 181 183 185 189 191 193 194 195 200 201 203 203 201 198 192 184 179 92 2 358 358 354 346 343 340 340 340
215 190 238 267 235 287 196 229 220 247 237 220 216 212 196 193 183 176 175 182 183 188 190 191 195 198 202 203 197 199 199 194 193 210 329 339 341 337 333 334 336 338 339 342
237 143 231 241 263 256 236 222 229 229 231 236 231 218 205 195 184 176 175 177 180 184 187 192 195 199 198 195 195 198 196 199 214 267 305 313 315 324 335 341 341 341 342 342
160 142 210 249 248 287 259 243 235 230 229 229 214 206 202 196 184 182 178 180 182 184 186 190 194 195 195 194 193 194 198 214 243 271 289 301 316 329 337 339 344 346 342 340
179 186 215 245 324 243 273 256 227 231 227 216 209 196 194 200 189 183 179 181 183 184 187 189 190 191 192 192 193 199 210 230 252 274 294 306 316 324 329 332 338 339 337 332